Date String (YYYY-MM-DD hh:mm:ss) UTC,Instrument flags,absolute air pressure of the measurement (hPa),sample flow rate (lpm),inlet stack bypass flow (lpm),air temperature of the measurement (°C),ambient temperature measured by the external sensor (°C),aerosol sample conditioner tube jacket temperature (°C),OPC LED temperature (°C),internal box temperature (°C),relative humidity of the measurement (%),span deviation,mass concentration of particles derived from Lorenz-Mie calculation of OPC scattering (μg/m³),mass concentration of particles derived from Lorenz-Mie calculation of OPC scattering (μg/m³),mass concentration of particles derived from Lorenz-Mie calculation of OPC scattering (μg/m³)
DateTimeUTC,F1_M11,P_M11,Q1_M11,Q2_M11,T1_M11,T2_M11,T3_M11,T4_M11,T5_M11,U1_M11,ZSPAN_M11,X2_M11,X0_M11,X1_M11
2023-07-24 06:00:00,SystemResetWarning,0835.2,5.01,000.00,029.1,025.3,000.0,037.3,030.4,21.6,0000.0,0003.99,0008.16,0003.63
2023-07-24 06:01:00,SystemResetWarning,0835.2,5.00,000.00,029.0,025.6,000.0,037.4,030.3,22.5,0000.0,0004.00,0007.82,0003.64
2023-07-24 06:02:00,SystemResetWarning,0835.2,5.00,000.00,029.0,025.9,000.0,037.4,030.4,22.9,0000.0,0003.99,0007.54,0003.65
2023-07-24 06:03:00,SystemResetWarning,0835.2,5.00,000.00,029.0,026.3,000.0,037.4,030.5,23.1,0000.0,0003.98,0007.54,0003.65
2023-07-24 06:04:00,SystemResetWarning,0835.3,5.00,000.00,029.0,026.7,000.0,037.4,030.5,22.3,0000.0,0003.98,0007.60,0003.65
2023-07-24 06:05:00,SystemResetWarning,0835.3,4.99,000.00,029.0,027.0,000.0,037.5,030.6,21.7,0000.0,0003.98,0007.68,0003.65
2023-07-24 06:06:00,SystemResetWarning,0835.3,4.99,000.00,029.0,027.3,000.0,037.5,030.7,21.2,0000.0,0003.99,0007.61,0003.65
2023-07-24 06:07:00,SystemResetWarning,0835.3,5.00,000.00,029.1,027.5,000.0,037.5,030.7,21.2,0000.0,0003.99,0007.65,0003.66
2023-07-24 06:08:00,SystemResetWarning,0835.3,5.00,000.00,029.1,027.7,000.0,037.5,030.8,21.1,0000.0,0004.00,0007.68,0003.67
2023-07-24 06:09:00,SystemResetWarning,0835.3,5.00,000.00,029.1,027.8,000.0,037.5,030.8,20.7,0000.0,0004.00,0007.69,0003.67
2023-07-24 06:10:00,SystemResetWarning,0835.2,5.01,000.00,029.2,027.9,000.0,037.5,030.9,20.5,0000.0,0003.99,0007.68,0003.66
2023-07-24 06:11:00,SystemResetWarning,0835.2,5.00,000.00,029.2,028.1,000.0,037.6,030.9,21.9,0000.0,0003.97,0006.46,0003.67
2023-07-24 06:12:00,SystemResetWarning,0835.2,5.00,000.00,029.2,028.2,000.0,037.6,031.0,22.2,0000.0,0003.97,0008.05,0003.66
2023-07-24 06:13:00,SystemResetWarning,0835.2,4.98,000.00,029.3,027.0,000.0,037.5,030.9,22.1,0000.0,0003.99,0008.62,0003.65
2023-07-24 06:14:00,SystemResetWarning,0835.2,5.01,000.00,029.2,025.5,000.0,037.4,030.6,22.3,0000.0,0004.04,0008.80,0003.66
2023-07-24 06:15:00,SystemResetWarning,0835.2,5.01,000.00,029.1,025.3,000.0,037.4,030.5,22.2,0000.0,0004.06,0008.74,0003.68
2023-07-24 06:16:00,SystemResetWarning,0835.2,4.99,000.00,029.0,025.6,000.0,037.4,030.4,22.1,0000.0,0004.09,0008.71,0003.70
2023-07-24 06:17:00,SystemResetWarning,0835.3,5.00,000.00,029.0,026.0,000.0,037.4,030.4,21.9,0000.0,0004.11,0008.76,0003.72
2023-07-24 06:18:00,SystemResetWarning,0835.4,5.00,000.00,029.0,026.4,000.0,037.5,030.5,21.7,0000.0,0004.14,0008.75,0003.73
2023-07-24 06:19:00,SystemResetWarning,0835.2,5.01,000.00,029.0,026.7,000.0,037.5,030.5,21.5,0000.0,0004.14,0008.75,0003.75
2023-07-24 06:20:00,SystemResetWarning,0835.2,5.00,000.00,029.0,027.0,000.0,037.5,030.6,21.8,0000.0,0004.15,0008.89,0003.77
2023-07-24 06:21:00,SystemResetWarning,0835.2,5.00,000.00,029.0,027.3,000.0,037.5,030.7,22.2,0000.0,0004.17,0008.93,0003.79
2023-07-24 06:22:00,SystemResetWarning,0835.3,5.00,000.00,029.1,027.5,000.0,037.5,030.7,22.5,0000.0,0004.18,0008.93,0003.80
2023-07-24 06:23:00,SystemResetWarning,0835.3,5.00,000.00,029.1,027.6,000.0,037.5,030.8,22.3,0000.0,0004.22,0007.89,0003.81
2023-07-24 06:24:00,SystemResetWarning,0835.3,5.00,000.00,029.1,027.8,000.0,037.5,030.8,21.6,0000.0,0004.23,0007.25,0003.83
2023-07-24 06:25:00,SystemResetWarning,0835.2,5.01,000.00,029.2,027.9,000.0,037.6,030.9,21.4,0000.0,0004.19,0006.96,0003.84
2023-07-24 06:26:00,SystemResetWarning,0835.2,5.01,000.00,029.2,028.0,000.0,037.6,030.9,20.7,0000.0,0004.19,0007.05,0003.84
2023-07-24 06:27:00,SystemResetWarning,0835.3,5.01,000.00,029.3,028.1,000.0,037.6,031.0,20.6,0000.0,0004.17,0007.64,0003.83
2023-07-24 06:28:00,SystemResetWarning,0835.3,5.00,000.00,029.3,027.8,000.0,037.6,031.0,20.6,0000.0,0004.17,0007.64,0003.83
2023-07-24 06:29:00,SystemResetWarning,0835.2,4.98,000.00,029.3,026.0,000.0,037.5,030.8,20.5,0000.0,0004.18,0007.69,0003.85
2023-07-24 06:30:00,SystemResetWarning,0835.3,5.01,000.00,029.2,025.3,000.0,037.4,030.6,20.7,0000.0,0004.23,0008.47,0003.85
2023-07-24 06:31:00,SystemResetWarning,0835.3,5.00,000.00,029.1,025.4,000.0,037.4,030.4,20.8,0000.0,0004.24,0008.90,0003.84
2023-07-24 06:32:00,SystemResetWarning,0835.3,4.98,000.00,029.0,025.8,000.0,037.5,030.4,21.1,0000.0,0004.24,0009.18,0003.84
2023-07-24 06:33:00,SystemResetWarning,0835.3,5.00,000.00,029.0,026.2,000.0,037.5,030.5,21.3,0000.0,0004.24,0009.24,0003.84
2023-07-24 06:34:00,SystemResetWarning,0835.3,5.01,000.00,029.0,026.6,000.0,037.5,030.5,21.3,0000.0,0004.21,0009.14,0003.84
2023-07-24 06:35:00,SystemResetWarning,0835.3,5.00,000.00,029.0,026.9,000.0,037.5,030.6,21.5,0000.0,0004.18,0009.06,0003.84
2023-07-24 06:36:00,SystemResetWarning,0835.3,5.00,000.00,029.1,027.2,000.0,037.5,030.7,21.9,0000.0,0004.20,0009.06,0003.83
2023-07-24 06:37:00,SystemResetWarning,0835.3,5.00,000.00,029.1,027.4,000.0,037.5,030.7,22.3,0000.0,0004.21,0009.29,0003.83
2023-07-24 06:38:00,SystemResetWarning,0835.3,5.00,000.00,029.1,027.6,000.0,037.5,030.8,22.6,0000.0,0004.21,0009.05,0003.83
2023-07-24 06:39:00,SystemResetWarning,0835.3,5.00,000.00,029.1,027.7,000.0,037.6,030.8,22.6,0000.0,0004.22,0009.49,0003.83
2023-07-24 06:40:00,SystemResetWarning,0835.3,5.00,000.00,029.2,027.9,000.0,037.6,030.9,22.6,0000.0,0004.21,0009.46,0003.82
2023-07-24 06:41:00,SystemResetWarning,0835.3,5.01,000.00,029.2,028.0,000.0,037.6,030.9,22.6,0000.0,0004.15,0008.67,0003.81
2023-07-24 06:42:00,SystemResetWarning,0835.3,5.00,000.00,029.3,028.1,000.0,037.6,031.0,22.4,0000.0,0004.14,0008.08,0003.81
2023-07-24 06:43:00,SystemResetWarning,0835.3,5.00,000.00,029.3,028.2,000.0,037.7,031.0,21.0,0000.0,0004.15,0007.80,0003.81
2023-07-24 06:44:00,SystemResetWarning,0835.2,4.99,000.00,029.3,026.9,000.0,037.6,030.9,20.7,0000.0,0004.16,0008.14,0003.81
2023-07-24 06:45:00,SystemResetWarning,0835.1,5.01,000.00,029.2,025.4,000.0,037.4,030.6,20.3,0000.0,0004.17,0008.61,0003.81
2023-07-24 06:46:00,SystemResetWarning,0835.1,5.02,000.00,029.1,025.3,000.0,037.4,030.4,20.1,0000.0,0004.19,0008.62,0003.82
2023-07-24 06:47:00,SystemResetWarning,0835.1,4.99,000.00,029.1,025.6,000.0,037.4,030.3,20.5,0000.0,0004.17,0008.59,0003.83
2023-07-24 06:48:00,SystemResetWarning,0835.1,4.99,000.00,029.0,026.0,000.0,037.5,030.4,20.6,0000.0,0004.16,0008.40,0003.83
2023-07-24 06:49:00,SystemResetWarning,0835.0,5.00,000.00,029.0,026.4,000.0,037.5,030.5,20.6,0000.0,0004.17,0008.19,0003.84
2023-07-24 06:50:00,SystemResetWarning,0835.0,5.00,000.00,029.0,026.8,000.0,037.5,030.6,20.2,0000.0,0004.16,0007.56,0003.84
2023-07-24 06:51:00,SystemResetWarning,0835.0,5.01,000.00,029.1,027.0,000.0,037.5,030.6,19.7,0000.0,0004.16,0007.59,0003.85
2023-07-24 06:52:00,SystemResetWarning,0834.9,5.01,000.00,029.1,027.3,000.0,037.5,030.7,19.7,0000.0,0004.19,0007.62,0003.86
2023-07-24 06:53:00,SystemResetWarning,0835.0,4.99,000.00,029.1,027.5,000.0,037.6,030.8,19.6,0000.0,0004.21,0007.64,0003.87
2023-07-24 06:54:00,SystemResetWarning,0835.0,4.99,000.00,029.1,027.7,000.0,037.6,030.8,19.6,0000.0,0004.22,0007.66,0003.87
2023-07-24 06:55:00,SystemResetWarning,0835.0,5.00,000.00,029.2,027.8,000.0,037.6,030.9,20.5,0000.0,0004.22,0007.29,0003.88
2023-07-24 06:56:00,SystemResetWarning,0834.9,4.99,000.00,029.2,028.0,000.0,037.6,030.9,20.9,0000.0,0004.23,0006.67,0003.89
2023-07-24 06:57:00,SystemResetWarning,0834.9,5.00,000.00,029.3,028.1,000.0,037.6,031.0,21.3,0000.0,0004.27,0006.81,0003.89
2023-07-24 06:58:00,SystemResetWarning,0834.9,5.01,000.00,029.3,028.2,000.0,037.7,031.0,20.4,0000.0,0004.27,0006.83,0003.89
2023-07-24 06:59:00,SystemResetWarning,0834.9,5.00,000.00,029.3,027.8,000.0,037.6,031.0,20.0,0000.0,0004.26,0006.82,0003.88
